Погода в Манта

Эквадор     0°57′34″N   80°42′42″W
темп.,
°C
ветер,
м/с
пор.,
м/с
влажн.,
%
обл.,
%
осадки,
мм/ч
давл.,
гПа
погр.,
м
24 января, пн
пн2401:00+24юз5682100 0.1 1011503
04:00+24ююз578799 0.1 1009520
07:00+23ююз578986 0.4 1010468
10:00+25ююз557858 0.0 1012634
13:00+26юз667487 0.1 1009712
16:00+26юз6769100 0.0 1008751
19:00+24юз688099 0.0 1010545
22:00+23юз6883100 0.1 1012518
25 января, вт
вт2501:00+23юз6884100 0.3 1011588
04:00+23ююз5783100 0.1 1010609
07:00+23вюв2380100 0.1 1012390
10:00+24в117578 0.2 1013509
13:00+24зсз1175100 0.3 1011449
16:00+25з327599 0.0 1009640
19:00+24зюз3379100 0.1 1011449
22:00+24юз2383100 0.0 1013257
26 января, ср
ср2601:00+23ююз2388100 0.0 1011179
04:00+22ю129098 0.0 1011115
07:00+23ююв128885 0.0 1012132
10:00+26св1268100 0.1 1013734
13:00+26з3275100 0.4 1012518
16:00+26зюз4373100 0.1 1009729
19:00+24юз3483100 0.1 1011435
22:00+24юз238763 0.0 1013296
27 января, чт
чт2701:00+24юз2387100 0.1 1012288
04:00+23ююз2389100 0.5 1011223
07:00+23ю129181 2.3 1012122
10:00+24ююз118564 0.7 1014229
13:00+27зсз337165 0.8 1012837
16:00+26зсз447321 0.1 1010836
19:00+25зсз338345 0.3 1011372
22:00+24з238676 0.2 1013286
28 января, пт
пт2801:00+24зсз238785 0.4 1012278
04:00+23зюз229034 2.3 101181
07:00+23юз229018 4.4 1013135
10:00+26зюз227338 2.1 1014628
13:00+27з327136 4.2 1012906
16:00+26з437219 0.3 1009836
19:00+24зюз338217 0.3 1011461
22:00+24юз338612 0.1 1013295